World > North America > United States > New York > Albany   City of Albany, New York

Albany, NY Hourly Weather Conditions

Feedback E-mail the Weather

Quick WX

Albany, NY Weather Maps

°F °C°F °C
Albany Weather Map
UTC Time: 11/28/2022, 12:50
Your Time:

Albany, NY Regional Weather

Expires:202211281300;;945060
ASUS41 KBTV 281230
RWRBTV
VERMONT REGIONAL WEATHER ROUNDUP
NATIONAL WEATHER SERVICE BURLINGTON VT
700 AM EST MON NOV 28 2022

NOTE: "FAIR" INDICATES FEW OR NO CLOUDS BELOW 12,000 FEET WITH NO 
SIGNIFICANT WEATHER AND/OR OBSTRUCTIONS TO VISIBILITY.

* THESE REPORTS ARE NOT UNDER NWS QUALITY CONTROL AND/OR DO NOT
  REPORT WEATHER SUCH AS PRECIPITATION AND FOG.


NYZ007-026>031-035-052-083-087-281300-
_____NORTHERN NEW YORK_
  
CITY           SKY/WX    TMP DP  RH WIND       PRES   REMARKS
PLATTSBURGH    CLOUDY    39  34  82 NW8       29.54R                  
6HR MIN TEMP:  38; 6HR MAX TEMP:  40; 6HR PCP: TRACE;                

SARANAC LAKE   CLOUDY    34  32  92 VRB5      29.53R FOG     WCI  30  
6HR MIN TEMP:  34; 6HR MAX TEMP:  37; 6HR PCP:  0.01;                

MASSENA        CLOUDY    37  32  82 NW12      29.66R WCI  29          
6HR MIN TEMP:  37; 6HR MAX TEMP:  39; 6HR PCP:  0.01;                

OGDENSBURG*    CLOUDY    36  34  93 NW13G21   29.65R WCI  27          
POTSDAM*       CLOUDY    36  34  93 NW12G18   29.64R WCI  27          
WATERTOWN      CLOUDY    38  34  85 N9        29.67R WCI  31          
6HR MIN TEMP:  37; 6HR MAX TEMP:  40; 6HR PCP:  0.01;                

FT DRUM        CLOUDY    36  36 100 N9        29.65R WCI  29          
6HR MIN TEMP:  35; 6HR MAX TEMP:  38; 6HR PCP:  0.04;                

ALBANY         MOCLDY    43  35  73 W16G25    29.55R                  
6HR MIN TEMP:  43; 6HR MAX TEMP:  50;                                

GLENS FALLS    MOCLDY    41  35  79 N7        29.56R                  
6HR MIN TEMP:  41; 6HR MAX TEMP:  47; 6HR PCP: TRACE;                


$$

SKY/WX - Weather  TMP - Temperature  DP - Dew Point  RH - Humidity
WIND - Wind Direction/Speed PRES - Barometric Pressure VSB - Visibility
WCI - Wind Chill Index E13G22 Wind - East Wind 13 mph/Gusts of 22 mph

Trending Headlines

Trending Entertainment Headlines

Albany Radar Loop

Use the map search tool if you want to place a location marker on the radar map...

Albany Quick Facts

National Two Day Weather Forecast


E-mail the Albany Weather Forecast

Voice your opinion or tell us about page issues...